CFG785 LXGB-LPMA

Flight info

Callsign CFG785
Flight time N/A
Altitude 34000
Route LINTO UN10 TNR UN726 BAMBA N726 ORTOP DCT NARTA/N0454F330 DCT RULET DCT RAKUN
Aircraft A320/M-SDE3FGHIRWY/LB1

Departure

Time 2026-05-05 17:03
Airport Gibraltar Airport (LXGB)

Arrival

Time N/A
Airport Cristiano Ronaldo International Airport (LPMA)
Time Latitude Longitude Altitude Speed Heading
2026-05-05 16:47 36.15301 -5.34719 17 ft 0 kts
2026-05-05 16:54 36.15300 -5.34719 17 ft 0 kts
2026-05-05 16:57 36.15297 -5.34719 17 ft 3 kts
2026-05-05 16:58 36.15272 -5.34719 17 ft 2 kts
2026-05-05 16:58 36.15268 -5.34721 17 ft 4 kts 168°
2026-05-05 16:58 36.15246 -5.34707 18 ft 4 kts 133°
2026-05-05 16:58 36.15244 -5.34705 18 ft 4 kts 91°
2026-05-05 16:59 36.15244 -5.34720 18 ft 3 kts 89°
2026-05-05 17:00 36.15241 -5.34706 19 ft 8 kts 115°
2026-05-05 17:00 36.15230 -5.34582 21 ft 22 kts 87°
2026-05-05 17:01 36.15238 -5.34377 14 ft 24 kts 86°
2026-05-05 17:01 36.15237 -5.34250 16 ft 0 kts 123°
2026-05-05 17:01 36.15219 -5.34239 16 ft 11 kts 159°
2026-05-05 17:02 36.15149 -5.34240 17 ft 4 kts 248°
2026-05-05 17:02 36.15145 -5.34280 15 ft 0 kts 266°
2026-05-05 17:02 36.15145 -5.34281 15 ft 0 kts 266°
2026-05-05 17:02 36.15134 -5.34579 19 ft 73 kts 268°
2026-05-05 17:03 36.15102 -5.35508 35 ft 138 kts 266°
2026-05-05 17:03 36.15053 -5.36756 604 ft 149 kts 265°
2026-05-05 17:03 36.14986 -5.38065 1331 ft 157 kts 264°
2026-05-05 17:03 36.14914 -5.39440 1890 ft 162 kts 265°
2026-05-05 17:04 36.14361 -5.40699 2231 ft 180 kts 234°
2026-05-05 17:04 36.13529 -5.41940 2605 ft 193 kts 236°
2026-05-05 17:04 36.12709 -5.43307 3115 ft 204 kts 237°
2026-05-05 17:04 36.11869 -5.44784 3643 ft 217 kts 238°
2026-05-05 17:05 36.10970 -5.46391 4039 ft 239 kts 238°
2026-05-05 17:05 36.10000 -5.48128 4531 ft 256 kts 237°
2026-05-05 17:05 36.08959 -5.49985 5224 ft 263 kts 239°
2026-05-05 17:05 36.07905 -5.51862 6007 ft 267 kts 238°
2026-05-05 17:06 36.06851 -5.53733 6754 ft 271 kts 237°
2026-05-05 17:06 36.05770 -5.55654 7524 ft 272 kts 237°
2026-05-05 17:06 36.04683 -5.57590 8341 ft 276 kts 237°
2026-05-05 17:06 36.03591 -5.59534 9216 ft 275 kts 238°
2026-05-05 17:07 36.02495 -5.61483 10037 ft 277 kts 237°
2026-05-05 17:07 36.01364 -5.63493 10405 ft 295 kts 237°
2026-05-05 17:07 36.00147 -5.65657 10577 ft 319 kts 237°
2026-05-05 17:07 35.98841 -5.67981 10782 ft 338 kts 237°
2026-05-05 17:08 35.97488 -5.70383 11378 ft 343 kts 236°
2026-05-05 17:08 35.96113 -5.72816 12018 ft 348 kts 237°
2026-05-05 17:08 35.94722 -5.75277 12648 ft 352 kts 236°
2026-05-05 17:08 35.93316 -5.77762 13326 ft 354 kts 237°
2026-05-05 17:09 35.91902 -5.80267 13989 ft 357 kts 237°
2026-05-05 17:09 35.90480 -5.82785 14565 ft 360 kts 237°
2026-05-05 17:09 35.89043 -5.85325 15126 ft 363 kts 236°
2026-05-05 17:09 35.87577 -5.87880 15694 ft 366 kts 234°
2026-05-05 17:10 35.85829 -5.90189 16256 ft 372 kts 223°
2026-05-05 17:10 35.83741 -5.92038 16797 ft 378 kts 212°
2026-05-05 17:10 35.81340 -5.93419 17349 ft 383 kts 205°
2026-05-05 17:10 35.79068 -5.95093 17880 ft 382 kts 225°
2026-05-05 17:11 35.77457 -5.97672 18398 ft 381 kts 243°
2026-05-05 17:11 35.76492 -6.00703 18844 ft 382 kts 256°
2026-05-05 17:11 35.76100 -6.03932 18989 ft 381 kts 269°
2026-05-05 17:11 35.76347 -6.07168 19025 ft 381 kts 281°
2026-05-05 17:12 35.76928 -6.10352 19033 ft 381 kts 282°
2026-05-05 17:12 35.77525 -6.13529 19023 ft 380 kts 282°
2026-05-05 17:12 35.78130 -6.16700 19027 ft 380 kts 282°
2026-05-05 17:12 35.78738 -6.19869 19019 ft 380 kts 282°
2026-05-05 17:13 35.79344 -6.23037 19024 ft 380 kts 282°
2026-05-05 17:13 35.79948 -6.26208 19027 ft 380 kts 282°
2026-05-05 17:13 35.80551 -6.29380 19023 ft 380 kts 282°
2026-05-05 17:13 35.81131 -6.32517 19029 ft 380 kts 282°
2026-05-05 17:14 35.81700 -6.35699 19033 ft 381 kts 281°
2026-05-05 17:14 35.82262 -6.38909 19493 ft 384 kts 281°
2026-05-05 17:14 35.82825 -6.42130 20019 ft 385 kts 281°
2026-05-05 17:14 35.83391 -6.45368 20535 ft 387 kts 281°
2026-05-05 17:15 35.84003 -6.48608 21022 ft 390 kts 283°
2026-05-05 17:15 35.84677 -6.51854 21501 ft 392 kts 283°
2026-05-05 17:15 35.85384 -6.55097 21966 ft 394 kts 284°
2026-05-05 17:15 35.86105 -6.58365 22409 ft 396 kts 283°
2026-05-05 17:16 35.86821 -6.61646 22861 ft 398 kts 283°
2026-05-05 17:16 35.87528 -6.64950 23290 ft 400 kts 283°
2026-05-05 17:16 35.88229 -6.68277 23689 ft 402 kts 283°
2026-05-05 17:16 35.88929 -6.71621 24026 ft 403 kts 283°
2026-05-05 17:17 35.89628 -6.74977 24362 ft 405 kts 282°
2026-05-05 17:17 35.90328 -6.78348 24702 ft 407 kts 282°
2026-05-05 17:17 35.91032 -6.81730 25017 ft 408 kts 282°
2026-05-05 17:17 35.91739 -6.85127 25345 ft 410 kts 283°
2026-05-05 17:18 35.92441 -6.88498 25638 ft 412 kts 282°
2026-05-05 17:18 35.93150 -6.91926 25934 ft 414 kts 282°
2026-05-05 17:18 35.93861 -6.95377 26243 ft 415 kts 282°
2026-05-05 17:18 35.94575 -6.98838 26542 ft 417 kts 282°
2026-05-05 17:19 35.95293 -7.02315 26835 ft 418 kts 282°
2026-05-05 17:19 35.96013 -7.05800 27130 ft 420 kts 282°
2026-05-05 17:19 35.96735 -7.09293 27405 ft 421 kts 282°
2026-05-05 17:19 35.97461 -7.12809 27673 ft 423 kts 282°
2026-05-05 17:20 35.98188 -7.16334 27938 ft 424 kts 282°
2026-05-05 17:20 35.98913 -7.19865 28188 ft 426 kts 282°
2026-05-05 17:20 35.99638 -7.23418 28427 ft 427 kts 282°
2026-05-05 17:20 36.00364 -7.26981 28657 ft 429 kts 282°
2026-05-05 17:21 36.01092 -7.30559 28879 ft 430 kts 282°
2026-05-05 17:21 36.01824 -7.34151 29098 ft 431 kts 282°
2026-05-05 17:21 36.02494 -7.37748 29426 ft 429 kts 277°
2026-05-05 17:22 36.02841 -7.44974 30166 ft 422 kts 270°
2026-05-05 17:22 36.02933 -7.48633 30448 ft 420 kts 270°
2026-05-05 17:22 36.03027 -7.52190 30706 ft 420 kts 270°
2026-05-05 17:22 36.03123 -7.55795 30962 ft 419 kts 270°
2026-05-05 17:23 36.03217 -7.59387 31214 ft 418 kts 270°
2026-05-05 17:23 36.03311 -7.62986 31425 ft 420 kts 270°
2026-05-05 17:23 36.03405 -7.66594 31622 ft 421 kts 270°
2026-05-05 17:23 36.03498 -7.70212 31853 ft 421 kts 270°
2026-05-05 17:24 36.03588 -7.73823 32096 ft 421 kts 270°
2026-05-05 17:24 36.03676 -7.77432 32344 ft 420 kts 270°
2026-05-05 17:24 36.03763 -7.81039 32592 ft 420 kts 270°
2026-05-05 17:24 36.03847 -7.84642 32842 ft 419 kts 269°
2026-05-05 17:25 36.03930 -7.88237 33092 ft 419 kts 269°
2026-05-05 17:25 36.03986 -7.90619 33266 ft 418 kts 269°
2026-05-05 17:25 36.04096 -7.95421 33593 ft 418 kts 269°
2026-05-05 17:25 36.04174 -7.98958 33837 ft 417 kts 269°
2026-05-05 17:26 36.04251 -8.02542 34021 ft 417 kts 269°
2026-05-05 17:26 36.04405 -8.09721 34062 ft 418 kts 269°
2026-05-05 17:27 36.04555 -8.16903 34064 ft 418 kts 269°
2026-05-05 17:27 36.04698 -8.24085 34065 ft 418 kts 269°
2026-05-05 17:28 36.04839 -8.31273 34063 ft 418 kts 269°
2026-05-05 17:28 36.04979 -8.38460 34072 ft 418 kts 269°
2026-05-05 17:29 36.05114 -8.45643 34065 ft 419 kts 269°
2026-05-05 17:29 36.05249 -8.52837 34062 ft 419 kts 269°
2026-05-05 17:30 36.05375 -8.59978 34060 ft 419 kts 269°
2026-05-05 17:30 36.05487 -8.67169 34066 ft 419 kts 269°
2026-05-05 17:31 36.05600 -8.74363 34066 ft 419 kts 269°
2026-05-05 17:31 36.05719 -8.81556 34070 ft 419 kts 270°
2026-05-05 17:32 36.05830 -8.88747 34072 ft 419 kts 269°
2026-05-05 17:32 36.05928 -8.95941 34073 ft 419 kts 269°
2026-05-05 17:33 36.06025 -9.03140 34075 ft 419 kts 269°
2026-05-05 17:33 36.06124 -9.10332 34080 ft 419 kts 269°
2026-05-05 17:34 36.06217 -9.17520 34081 ft 418 kts 269°
2026-05-05 17:34 36.06307 -9.24667 34085 ft 418 kts 269°
2026-05-05 17:35 36.06391 -9.31854 34081 ft 418 kts 269°
2026-05-05 17:35 36.06469 -9.39043 34085 ft 418 kts 269°
2026-05-05 17:36 36.06537 -9.46231 34085 ft 418 kts 269°
2026-05-05 17:36 36.06599 -9.53415 34085 ft 418 kts 269°
2026-05-05 17:37 36.06663 -9.60607 34087 ft 418 kts 269°
2026-05-05 17:37 36.06731 -9.67786 34087 ft 418 kts 269°
2026-05-05 17:38 36.06789 -9.74971 34089 ft 418 kts 269°
2026-05-05 17:38 36.06835 -9.80945 34089 ft 418 kts 269°
2026-05-05 17:39 36.06893 -9.89298 34091 ft 418 kts 269°
2026-05-05 17:39 36.06928 -9.95317 34091 ft 418 kts 269°
2026-05-05 17:40 36.06968 -10.02501 34093 ft 418 kts 269°
2026-05-05 17:40 36.07006 -10.09642 34093 ft 418 kts 269°
2026-05-05 17:41 36.07037 -10.16827 34111 ft 418 kts 269°
2026-05-05 17:41 36.07060 -10.23998 34122 ft 417 kts 269°
2026-05-05 17:42 36.07081 -10.31148 34127 ft 416 kts 269°
2026-05-05 17:42 36.07096 -10.38281 34122 ft 415 kts 269°
2026-05-05 17:43 36.07115 -10.45412 34116 ft 415 kts 269°
2026-05-05 17:43 36.07132 -10.52530 34112 ft 414 kts 269°
2026-05-05 17:44 36.07141 -10.59650 34113 ft 414 kts 269°